Notices

What's New in latest Release from April 7th, 2021:

- Updated Glossary, including Speed of Maximum Gust, and Total Hourly Precipitation

- Updated national and regional climate services offices contacts and prices information

- Addition of station inventory lists for 1981-2010, 1971-2000, and 1961-1990 Normals.

If you haven't already, please take our survey and provide feedback about our website: https://eccc.sondage-survey.ca/f/LanguageSelection.aspx?s=442ca660-fcf1-47c0-95a9-59707d6fd709

Hourly Data Report for April 13, 2021

VICTORIA UNIVERSITY CS
BRITISH COLUMBIA
Current Station Operator: ECCC - MSC

48°27'25.200" N
123°18'16.600" W
60.10 m
1018598
71783
WYJ

Download Data

Hourly Data (April 2021)
Hourly Data Report for April 13, 2021
TIME
LST
Temp Definition
°C
Dew Point Definition
°C
Rel Hum Definition
%
Precip. Amount Definition
mm

Wind Dir Definition
10's deg

Wind Spd Definition
km/h
Visibility Definition
km
Stn Press Definition
kPa
Hmdx Definition


Wind Chill Definition


Weather Definition


00:00 8.8 -0.8 51 0.0 33 11   102.01     LegendNANA
01:00 8.6 -0.9 51 0.0 35 11   102.01     LegendNANA
02:00 8.5 -0.1 55 0.0 34 11   102.05     LegendNANA
03:00 8.3 -1.1 51 0.0 34 12   102.07     LegendNANA
04:00 8.1 -2.1 49 0.0 34 11   102.08     LegendNANA
05:00 7.7 -1.6 52 0.0 35 11   102.10     LegendNANA
06:00 7.8 0.1 58 0.0 35 12   102.13     LegendNANA
07:00 9.1 0.9 57 0.0 33 12   102.15     LegendNANA
08:00 9.8 1.9 58 0.0 35 14   102.18     LegendNANA
09:00 10.8 1.5 52 0.0 35 18   102.21     LegendNANA
10:00 11.5 0.8 48 0.0 2 16   102.20     LegendNANA
11:00 12.8 0.7 44 0.0 1 13   102.20     LegendNANA
12:00 13.5 -0.3 39 0.0 35 13   102.13     LegendNANA
13:00 14.5 -1.5 33 0.0 35 14   102.08     LegendNANA
14:00 15.7 -2.5 28 0.0 1 10   102.02     LegendNANA
15:00 15.8 -4.9 24 0.0 1 10   101.97     LegendNANA
16:00 16.0 -5.6 22 0.0 36 11   101.92     LegendNANA
17:00 15.8 -5.5 23 0.0 36 11   101.87     LegendNANA
18:00 15.1 -4.9 25 0.0 33 8   101.82     LegendNANA
19:00 11.3 -1.3 41 0.0 24 2   101.80     LegendNANA
20:00 8.4 -1.0 52 0.0 25 3   101.79     LegendNANA
21:00 6.6 -1.2 57 0.0 26 3   101.77     LegendNANA
22:00 6.8 -2.0 54 0.0   0   101.77     LegendNANA
23:00 6.4 -2.9 51 0.0   0   101.76     LegendNANA

Notes on Data Quality.

Legend

  • E = Estimated
  • M = Missing
  • NA = Not Available*
  • [empty] = Indicates an unobserved value
Date modified: